Location: Trois-Rivi�res
(46.3500°N, 72.5500°W)
Time: 14:30:15
(UTC-04:00)

Envisat - Pass Details

Date: 13 October 2017
Orbit: 764 x 766 km, 98.2° (Epoch: 19 October)

Event Time Altitude Azimuth Distance (km) Brightness Sun altitude
Exits shadow 20:56:59 56° 250° (WSW) 909 3.5 -29.8°
Maximum altitude 20:57:10 56° 260° (W) 906 3.5 -29.8°
Drops below altitude 10° 21:02:11 10° 338° (NNW) 2,312 6.0 -30.6°
Sets 21:04:33 0° 343° (NNW) 3,243 6.8 -31.0°
